カタログに戻る

GLOBALSTAR M076

運用中通信LEO
NORAD 37190·PAYLOAD·🇺🇸 United States

打ち上げ Oct 19, 2010 から Baikonur Cosmodrome

Loading…

次のパス (今後24時間)

TLE

最新Source: Space-Track

元期: Sep 14, 2026, 07:03 UTC

1 37190U 10054C   26257.29397266 -.00000090  00000-0  77238-4 0  9997
2 37190  52.0017 196.8794 0000219  64.8474  99.2605 12.62263602734124

AllMySatでGLOBALSTAR M076をリアルタイム追跡

Download on the App Store